Location: Unspecified
(0.0000°N, 0.0000°E)
Time: 17:55:27
(UTC+00:00)

N. Korean satellite - Pass Details

Date: 17 January 2020
Orbit: 454 x 507 km, 97.2° (Epoch: 22 January)

Event Time Altitude Azimuth Distance (km) Brightness Sun altitude
Rises 04:38:59 0° 42° (NE) 2,533 10.5 -21.2°
Reaches altitude 10° 04:41:46 10° 67° (ENE) 1,669 9.9 -20.5°
Maximum altitude 04:43:49 15° 102° (ESE) 1,415 9.9 -20.0°
Drops below altitude 10° 04:45:54 10° 137° (SE) 1,691 10.3 -19.6°
Sets 04:48:44 0° 161° (SSE) 2,587 10.9 -18.9°
